User: anonymous   Login
Location: Cow Canyon Saddle
(34.2291°N, 117.6698°W)
Time: 15:15:14
(UTC-07:00)
Language:

Lacrosse 5 - Orbit

View from above orbital plane
View from above orbital plane
View from above satellite
View from above satellite

Ground track
Ground track

The orbit data is extracted from the following two-line orbital elements,

1 28646U 05016A   15211.94373903 0.00000000  00000-0  00000-0 0    09
2 28646  57.0110 170.9050 0006000  69.7537 290.2463 14.52101532    07
Epoch (UTC): 30 July 2015 22:38:59
Eccentricity: 0.0006000
inclination: 57.0110°
perigee height: 714 km
apogee height: 723 km
right ascension of ascending node: 170.9050°
argument of perigee: 69.7537°
revolutions per day: 14.52101532
mean anomaly at epoch: 290.2463°
orbit number at epoch: 0

The dashed part of the orbit path shows where the satellite is in the earth's shadow,  

DLR